{"data":{"norad_id":63449,"intl_designator":"2025-069S","name":"STARLINK-33798","alt_names":[],"object_type":"PAYLOAD","status":"ACTIVE","operator":null,"country":"US","launch_date":"2025-04-04","launch_site_code":"AFWTR","launch_vehicle":null,"mission":null,"orbit_class":"UNKNOWN","rcs_meters":null,"size_class":null,"mass_kg":null,"dimensions":null,"purposes":["comms"],"wikipedia_slug":null,"has_3d_model":false,"image_url":null,"decayed_at":null,"tle_current":{"epoch":"2026-09-20T09:40:53.089536Z","epoch_age_seconds":164000,"freshness":"FRESH","line1":"1 63449U 25069S   26263.40339224  .00014165  00000+0  42949-3 0  9991","line2":"2 63449  53.1601 310.4065 0001170  88.2237 271.8900 15.34405295 83053","mean_motion":15.34405295,"eccentricity":0.000117,"inclination_deg":53.1601,"raan_deg":310.4065,"arg_perigee_deg":88.2237,"mean_anomaly_deg":271.89,"bstar":0.00042949,"rev_number":8305,"period_min":93.847434226952,"perigee_km":461.88712592971,"apogee_km":463.48787886327,"semimajor_km":6840.8245023965,"source":"CELESTRAK","updated_at":"2026-09-21T09:00:35.004609Z"}}}